Home   Weather   Panama City   Past weeks
Flag for USA

Past Weather in Panama City, Florida, USA — Yesterday and Last 2 Weeks

Now
75 °F

Clear.


Feels Like: 75 °F
Forecast: 88 / 74 °F
Wind: 5 mph from Northwest

Location: Apalachicola Municipal Airport

Current Time: May 26, 2019 at 10:26:41 pm

Latest Report: May 26, 2019 at 8:53 pm


Visibility: 10 mi

Pressure: 30.08 "Hg

Humidity: 82%

Dew Point: 69 °F

Location of Panama CityLocation

Past Weather in Panama City — Graph

°F

Panama City Temperature Yesterday

Maximum temperature yesterday: 90 °F (at 3:53 pm)
Minimum temperature yesterday: 68 °F (at 4:31 am)
Average temperature yesterday: 80 °F

High & Low Weather Summary for the Past Weeks

 TemperatureHumidityPressure
High90 °F (May 25, 3:53 pm)94% (May 18, 6:13 am)30.21 "Hg (May 18, 6:13 am)
Low59 °F (May 16, 5:53 am)37% (May 16, 11:53 am)29.75 "Hg (May 12, 6:53 pm)
Average76 °F72%30.01 "Hg
* Reported May 11 8:53 pm — May 26 8:53 pm, Panama City. Weather by CustomWeather, © 2019

Note: Actual official high and low records may vary slightly from our data, if they occured in-between our weather recording intervals... More about our weather records

Advertising

Panama City Weather History for the Previous 24 Hours

Scroll right to see more
 ConditionsComfort  
Time TempWeatherWind HumidityBarometerVisibility
8:53 pm
Sun, May 26
75 °FClear.5 mph82%30.08 "Hg10 mi
7:53 pm81 °FClear.6 mph69%30.07 "Hg10 mi
6:53 pm83 °FSunny.7 mph65%30.07 "Hg10 mi
5:53 pm85 °FSunny.9 mph61%30.08 "Hg10 mi
4:53 pm86 °FSunny.10 mph61%30.09 "Hg10 mi
3:53 pm87 °FSunny.9 mph55%30.10 "Hg10 mi
2:53 pm87 °FSunny.8 mph53%30.12 "Hg10 mi
1:53 pm88 °FSunny.8 mph55%30.13 "Hg10 mi
12:53 pm87 °FSunny.9 mph57%30.14 "Hg10 mi
11:53 am86 °FSunny.10 mph61%30.14 "Hg10 mi
10:53 am86 °FSunny.9 mph61%30.16 "Hg10 mi
9:53 am85 °FSunny.10 mph61%30.16 "Hg10 mi
8:53 am85 °FSunny.10 mph68%30.16 "Hg10 mi
7:53 am83 °FPassing clouds.9 mph74%30.16 "Hg10 mi
6:53 am79 °FSunny.No wind88%30.14 "Hg10 mi
5:53 am73 °FSunny.No wind88%30.12 "Hg10 mi
4:53 am73 °FClear.No wind90%30.10 "Hg10 mi
3:53 am73 °FClear.No wind90%30.10 "Hg10 mi
2:53 am73 °FClear.No wind90%30.09 "Hg10 mi
1:53 am75 °FClear.No wind88%30.09 "Hg10 mi
12:53 am76 °FPassing clouds.No wind88%30.09 "Hg10 mi
11:53 pm
Sat, May 25
77 °FPassing clouds.No wind85%30.09 "Hg10 mi
10:53 pm78 °FClear.No wind82%30.10 "Hg10 mi
Weather by CustomWeather, © 2019

See weather overview